Probability
6 5 2 0 0 0 0 0 0 0 0 0 0 0 0 0 0 0 0 0 0 0 0 0 0 0 0 0 0 0 0 0 0 0 0 0 0 0 0 0 0 0 0 0 0 0 0 1 1
8 4 1 0 0 0 0 0 0 0 0 0 0 0 0 0 0 0 0 0 0 0 0 0 0 0 0 0 0 0 0 0 0 0 0 0 0 0 0 0 0 0 0 0 0 0 0 1 1
9 3 0 0 0 0 0 0 0 0 0 0 0 0 0 0 0 0 0 0 0 0 0 0 0 0 0 0 0 0 0 0 0 0 0 0 0 0 0 0 0 0 0 0 0 0 0 1 1
5 2 0 0 0 0 0 0 0 0 0 0 0 0 0 0 0 0 0 0 0 0 0 0 0 0 0 0 0 0 0 0 0 0 0 0 0 0 0 0 0 0 0 0 0 0 0 0 0
1 0 0 0 0 0 0 0 0 0 0 0 0 0 0 0 0 0 0 0 0 0 0 0 0 0 0 0 0 0 0 0 0 0 0 0 0 0 0 0 0 0 0 0 0 0 0 0 0
0 0 0 0 0 0 0 0 0 0 0 0 0 0 0 0 0 0 0 0 0 0 0 0 0 0 0 0 0 0 0 0 0 0 0 0 0 0 0 0 0 0 0 0 0 0 0 0 0
0 0 0 0 0 0 0 0 0 0 0 0 0 0 0 0 0 0 0 0 0 0 0 0 0 0 0 0 0 0 0 0 0 0 0 0 0 0 0 0 0 0 0 0 0 0 0 0 0
0 0 0 0 0 0 0 0 0 0 0 0 0 0 0 0 0 0 0 0 0 0 0 0 0 0 0 0 0 0 0 0 0 0 0 0 0 0 0 0 0 0 0 0 0 0 0 0 0
0 0 0 0 0 0 0 0 0 0 0 0 0 0 0 0 0 0 0 0 0 0 0 0 0 0 0 0 0 0 0 0 0 0 0 0 0 0 0 0 0 0 0 0 0 0 0 0 0
0 0 0 0 0 0 0 0 0 0 0 0 0 0 0 0 0 0 0 0 0 0 0 0 0 0 0 0 0 0 0 0 0 0 0 0 0 0 0 0 0 0 0 0 0 0 0 0 0
0 0 0 0 0 0 0 0 0 0 0 0 0 0 0 0 0 0 0 0 0 0 0 0 0 0 0 0 0 0 0 0 0 0 0 0 0 0 0 0 0 0 0 0 0 0 0 0 0
0 0 0 0 0 0 0 0 0 0 0 0 0 0 0 0 0 0 0 0 0 0 0 0 0 0 0 0 0 0 0 0 0 0 0 0 0 0 0 0 0 0 0 0 0 0 0 0 0
0 0 0 0 0 0 0 0 0 0 0 0 0 0 0 0 0 0 0 0 0 0 0 0 0 0 0 0 0 0 0 0 0 0 0 0 0 0 0 0 0 0 0 0 0 0 0 0 0
0 0 0 0 0 0 0 0 0 0 0 0 0 0 0 0 0 0 0 0 0 0 0 0 0 0 0 0 0 0 0 0 0 0 0 0 0 0 0 0 0 0 0 0 0 0 0 0 0
0 0 0 0 0 0 0 0 0 0 0 0 0 0 0 0 0 0 0 0 0 1 2 2 1 1 1 1 0 0 0 0 0 0 0 0 0 0 0 0 0 0 0 0 0 0 0 0 0
0 0 0 0 0 0 0 0 0 0 0 0 0 0 0 0 0 0 0 0 1 3 8 12 13 13 13 10 6 2 2 5 5 2 0 0 0 0 0 0 0 0 0 0 0 0 0 0 0
0 0 0 0 0 0 0 0 0 0 0 0 0 0 0 0 0 0 0 0 1 5 16 32 43 46 45 38 28 18 15 20 22 14 6 1 0 0 0 0 0 0 0 0 0 0 0 0 0
0 0 0 0 0 0 0 0 0 0 0 0 0 0 0 0 0 3 6 6 5 8 24 52 75 82 80 75 64 51 45 49 51 41 23 8 1 0 0 0 0 0 0 1 2 2 1 0 0
0 0 0 0 0 0 0 0 0 0 0 0 0 0 0 0 6 18 26 23 15 17 35 64 89 98 97 95 89 78 71 69 69 59 39 18 5 2 2 2 2 3 5 7 8 8 4 0 0
0 0 0 0 0 0 0 0 0 0 0 0 0 0 0 2 17 43 53 44 34 35 48 70 89 96 94 90 84 77 68 59 55 51 40 24 10 5 7 8 8 12 17 17 17 16 7 0 0
0 0 0 0 0 0 0 0 0 0 0 0 0 0 0 3 26 60 72 63 55 52 57 70 81 81 72 62 55 51 43 32 29 30 30 23 13 10 14 16 14 18 25 25 22 18 9 1 0
0 0 0 0 0 0 0 0 0 0 0 0 0 0 0 3 28 67 81 72 64 58 55 58 59 51 38 27 22 23 21 15 13 18 21 19 14 12 16 18 15 17 22 23 19 14 9 4 1
0 0 0 0 0 0 0 0 0 0 0 0 0 0 0 4 30 68 83 75 65 55 44 36 30 22 14 9 8 10 12 10 8 12 17 18 18 16 15 15 16 16 15 12 9 9 10 6 2
0 0 0 0 0 0 0 0 0 0 0 0 0 0 0 5 31 67 82 77 68 49 30 19 12 9 8 7 7 7 8 7 6 8 13 19 23 22 17 16 17 17 11 5 3 5 8 6 2
0 0 0 0 0 0 0 0 0 0 0 0 0 0 0 6 30 61 74 69 55 32 17 11 8 8 8 6 4 4 6 6 4 5 9 14 20 20 16 14 14 12 7 1 0 3 5 3 1
0 0 0 0 0 0 0 0 0 0 0 0 0 0 1 9 28 47 50 42 28 15 8 7 8 10 9 4 1 3 7 5 3 4 6 7 9 9 7 6 6 4 2 0 0 1 1 1 0
0 0 0 0 0 0 0 0 0 0 0 0 0 1 2 9 21 27 24 16 9 7 7 8 9 11 11 6 1 2 5 5 2 2 3 3 3 2 0 0 0 0 0 0 0 0 0 0 0
0 0 0 0 0 0 0 0 0 0 0 0 0 1 2 4 8 10 9 5 5 12 21 21 15 14 15 10 3 1 2 2 1 0 1 2 1 0 0 0 0 0 0 0 0 0 0 0 0
0 0 0 0 0 0 0 0 0 0 0 0 0 0 0 0 0 1 2 2 5 22 44 47 32 25 27 21 8 2 1 1 0 0 0 1 1 0 0 0 0 0 0 0 0 0 0 0 0
0 0 0 0 0 0 0 0 0 0 0 0 0 0 0 0 0 0 0 0 5 27 57 65 49 39 41 32 14 3 1 0 0 0 0 1 1 1 0 0 0 0 0 0 0 0 0 0 0
Wind_Speed
15 12 7 3 2 1 8 6 9 9 9 8 7 6 13 13 10 7 5 8 15 16 14 13 12 10 9 8 8 8 8 8 9 10 10 11 12 11 10 9 9 9 10 10 9 10 10 10 10
13 8 3 3 1 3 7 6 9 10 6 3 4 9 14 12 13 11 6 9 14 16 13 12 12 10 9 9 8 8 8 8 9 9 10 10 10 10 9 9 9 9 10 10 10 11 12 12 12
13 9 4 3 1 6 7 6 8 9 7 5 5 11 12 8 10 10 10 11 12 14 12 14 13 10 9 8 8 8 8 8 8 9 9 10 10 10 9 9 9 9 9 10 11 11 12 12 12
7 4 5 2 3 7 6 6 6 4 3 4 6 11 11 9 9 13 13 13 13 13 13 14 12 10 9 9 8 8 8 9 9 9 9 10 10 10 9 9 8 8 8 9 9 10 11 11 11
4 4 4 2 3 6 5 6 5 3 5 8 11 13 11 10 13 14 11 13 13 13 13 13 12 11 10 9 9 8 9 9 10 10 9 10 10 10 10 9 8 8 8 8 7 9 10 10 10
3 3 1 3 1 4 2 3 4 4 4 4 8 12 9 9 11 12 12 10 13 13 13 13 12 11 10 10 10 9 10 11 10 10 10 10 10 10 10 9 7 7 7 8 8 9 10 10 10
4 6 4 6 3 2 3 5 6 4 4 5 6 9 9 11 9 10 12 10 12 13 12 12 11 10 10 10 11 11 11 11 11 11 11 11 11 10 10 9 8 7 7 8 9 9 9 8 7
3 6 5 1 4 2 2 1 4 7 5 6 3 7 9 12 10 10 12 10 11 12 11 11 12 12 10 9 11 12 12 12 12 12 12 12 11 10 10 9 8 8 8 8 8 7 7 6 4
4 6 4 3 1 4 2 1 3 1 3 3 6 12 14 14 12 10 10 9 10 12 10 11 11 11 11 11 11 11 11 11 11 10 12 12 7 7 7 10 9 8 9 8 7 7 7 6 4
5 6 2 3 3 3 4 1 2 1 3 3 9 13 16 12 12 11 10 11 11 12 12 10 11 10 10 10 9 7 7 7 7 7 8 6 6 6 9 10 9 9 9 8 8 8 7 6 4
9 10 5 3 4 3 1 2 2 3 0 2 9 14 14 12 11 11 11 10 10 10 12 11 11 11 10 8 7 5 4 5 6 9 9 6 5 7 7 4 5 5 7 5 6 6 6 6 3
8 9 7 7 4 4 6 4 3 4 3 3 3 14 15 13 11 10 10 10 11 10 9 12 11 11 11 10 6 6 4 4 4 7 9 6 5 6 7 5 5 5 4 4 4 4 2 2 2
8 10 9 6 5 6 9 8 5 7 5 5 3 8 13 13 12 11 10 11 12 11 10 10 11 11 10 9 7 7 6 5 5 4 5 6 4 5 6 5 4 5 4 3 2 0 3 5 6
10 8 8 9 10 10 10 10 10 11 10 9 7 6 10 10 13 13 12 12 13 12 12 10 11 10 10 9 7 7 7 5 4 4 4 6 4 4 5 4 4 3 4 3 1 3 2 4 4
9 11 12 14 14 13 12 12 14 14 11 9 8 8 8 10 9 11 13 12 13 12 11 10 9 11 10 10 8 6 6 7 5 4 5 6 5 5 5 4 4 3 3 4 2 3 3 4 3
13 12 14 14 13 12 11 11 9 5 8 8 7 7 7 7 8 8 11 11 13 13 12 11 9 9 9 7 7 5 6 7 5 5 4 5 6 6 5 4 4 4 4 3 4 3 2 3 2
13 12 12 9 2 4 8 9 7 4 5 6 7 7 9 9 7 6 10 11 11 11 12 13 10 8 8 7 5 4 5 6 5 5 4 4 6 6 5 4 4 5 3 3 4 3 3 3 3
10 10 10 9 8 10 11 10 9 5 7 7 6 7 8 11 10 7 8 8 8 8 9 10 8 7 6 5 3 2 3 3 3 4 4 4 3 5 5 4 4 4 3 3 3 4 3 3 3
7 10 12 11 12 12 14 14 13 10 7 6 6 7 8 9 10 9 10 7 6 5 5 8 9 6 4 3 2 1 2 2 3 2 3 3 3 4 4 5 5 3 4 4 4 4 4 2 2
6 8 9 11 14 12 14 17 16 13 10 8 10 10 9 8 9 12 10 7 5 6 6 8 8 6 5 3 2 2 2 2 3 3 3 4 5 5 3 6 4 3 3 5 4 4 3 2 2
7 5 5 6 10 10 14 16 18 17 13 10 10 9 6 2 11 15 12 9 7 7 6 7 8 7 5 4 2 1 2 1 2 4 3 4 5 5 4 5 5 4 3 4 4 5 5 3 2
7 5 5 4 2 4 5 9 14 13 9 7 6 6 6 4 7 14 12 11 9 7 7 9 8 7 6 5 3 4 4 4 5 4 5 5 6 6 5 4 5 5 4 4 5 5 4 5 3
7 6 8 8 7 8 10 10 10 10 8 4 2 3 4 5 9 14 12 12 11 9 7 8 7 7 7 6 6 4 3 3 3 3 5 6 5 6 6 6 5 5 4 5 4 4 5 5 5
4 5 8 9 7 9 11 10 7 4 5 4 4 3 2 5 9 13 11 11 11 9 7 7 7 6 5 5 5 5 5 4 3 3 3 3 3 4 6 6 6 6 5 6 6 5 6 7 7
7 7 4 5 6 5 3 5 7 5 3 1 3 3 2 6 9 13 12 11 9 8 7 8 7 7 6 5 6 6 6 5 5 5 4 4 3 3 4 5 5 5 5 6 6 6 6 7 9
8 10 7 5 4 3 1 6 5 6 5 2 2 2 6 7 10 13 11 11 9 8 7 7 8 7 7 6 7 7 7 3 1 2 3 3 2 2 3 4 4 5 5 6 6 6 7 7 8
13 11 9 9 11 11 7 8 4 3 3 3 5 5 6 9 11 13 12 12 10 9 8 7 7 7 7 7 6 3 3 5 3 3 2 2 2 2 2 2 3 3 3 4 4 4 6 6 7
12 10 5 3 4 7 5 2 5 5 6 4 1 5 6 6 5 6 7 9 11 10 8 8 7 7 7 6 4 2 1 3 3 1 3 4 3 3 3 3 3 3 2 2 3 3 4 5 5
11 9 6 3 3 2 4 2 6 10 12 11 8 6 6 7 6 4 3 5 8 10 10 8 7 7 7 6 4 5 2 1 3 2 3 3 3 4 4 4 3 4 4 4 3 3 4 5 5
9 10 6 1 4 3 2 2 9 9 9 13 15 12 7 3 3 4 4 3 5 8 10 10 10 8 7 6 5 6 5 4 3 4 5 5 5 5 5 5 5 5 5 4 4 4 4 5 6
Wind_Direction
290 270 253 262 283 232 68 57 61 52 52 44 33 44 70 54 48 85 149 143 121 124 131 141 142 145 148 148 145 138 131 124 120 119 119 120 121 117 108 100 93 86 81 76 71 73 72 73 74
296 304 283 241 268 72 72 67 71 60 51 68 46 39 73 66 81 108 129 109 125 130 139 141 143 146 149 153 154 148 141 132 122 118 117 121 125 122 112 102 95 88 82 80 81 76 71 72 72
266 275 269 261 54 70 68 61 77 67 33 32 75 66 56 51 86 113 124 137 134 131 133 132 146 150 154 157 160 157 151 143 134 127 123 122 123 123 115 107 98 91 87 84 86 80 75 74 71
278 261 244 265 61 64 59 77 81 80 73 30 74 83 77 52 79 109 136 143 128 123 125 135 147 154 159 161 163 163 157 151 142 136 132 128 126 124 120 114 103 97 93 88 85 86 83 79 73
239 265 294 307 104 80 48 47 76 79 56 37 72 97 90 79 95 119 134 128 130 127 128 138 147 154 160 163 165 163 158 152 146 143 138 133 130 128 126 120 109 103 99 91 87 92 91 81 72
270 262 14 303 105 94 104 61 59 60 73 94 111 105 100 114 116 127 124 129 129 129 132 135 148 153 158 161 162 158 155 152 148 143 139 136 133 133 131 123 114 108 102 92 89 92 88 78 68
294 283 231 206 124 95 48 13 24 25 54 56 80 106 113 112 115 127 125 127 129 134 136 143 151 155 157 157 157 153 152 152 147 140 138 137 136 137 133 125 121 118 107 96 93 91 87 81 74
297 284 291 57 117 145 76 24 41 11 48 48 78 114 125 126 138 133 129 136 140 142 147 153 157 154 156 153 153 151 151 151 145 140 140 139 140 142 140 133 132 131 121 111 109 111 112 112 114
258 265 322 346 159 157 156 209 92 308 67 107 93 101 122 133 141 139 141 151 156 151 153 154 156 157 154 150 147 148 149 149 146 144 148 149 158 154 156 130 141 137 132 134 149 163 159 156 169
231 271 282 266 288 137 159 229 359 347 57 126 117 112 124 143 149 154 163 162 158 157 159 155 151 154 149 142 145 153 157 154 169 159 167 186 177 147 125 133 141 142 147 164 191 201 194 190 199
248 259 284 280 339 8 190 187 229 296 269 152 154 145 146 161 164 169 175 165 160 160 159 158 153 152 139 134 152 155 155 170 189 165 182 201 152 123 122 145 147 157 170 194 199 223 223 202 190
268 292 304 312 5 319 286 255 243 255 291 355 103 148 157 172 177 181 177 162 156 156 154 155 156 151 150 150 151 154 165 182 198 180 190 176 157 151 155 163 174 176 198 205 205 222 227 157 139
257 262 267 267 278 268 271 269 250 261 260 250 202 154 164 180 184 186 176 160 155 151 158 155 154 155 160 150 155 169 169 179 197 185 186 161 160 159 157 171 173 192 166 198 248 113 53 51 41
285 298 298 284 265 251 251 254 250 245 245 236 205 190 177 188 192 180 176 165 155 156 161 156 159 157 160 155 171 169 165 175 179 174 194 170 165 162 160 166 172 178 152 187 189 102 95 71 57
275 279 271 258 248 243 247 246 243 239 232 227 208 202 188 185 194 176 171 165 156 158 159 155 167 164 168 165 178 166 162 169 168 176 204 184 173 171 165 164 165 175 180 183 149 116 99 106 110
269 260 258 256 238 226 228 250 257 230 216 215 212 205 182 189 194 174 155 156 156 161 158 158 181 171 165 162 176 166 172 169 167 168 207 199 182 183 170 158 168 190 188 153 118 121 116 123 125
266 263 274 295 285 267 236 249 247 190 227 218 212 211 181 185 207 180 151 151 152 156 156 166 174 163 162 164 173 170 169 163 166 166 189 206 196 191 168 164 177 188 166 141 146 147 140 127 99
281 303 314 325 1 334 298 278 275 235 231 233 226 215 200 192 191 187 143 131 136 148 158 157 150 151 147 145 162 135 133 151 151 150 171 202 217 205 167 153 188 186 154 146 150 140 128 123 135
295 304 307 317 347 329 298 291 284 270 244 230 232 237 229 206 181 150 129 122 132 137 139 134 137 135 117 116 137 145 159 133 126 139 175 202 250 236 174 161 191 192 158 157 160 131 128 123 153
289 295 304 319 338 328 308 299 288 274 252 229 227 232 223 204 151 126 125 125 133 121 115 116 118 122 123 126 140 150 161 172 168 173 194 204 232 245 208 176 171 173 155 164 174 132 133 160 179
264 265 280 301 326 320 315 295 280 270 257 236 223 231 241 234 155 141 139 131 121 116 118 111 117 121 128 136 136 157 152 212 187 189 204 211 217 239 232 200 171 171 160 167 173 148 149 167 233
260 227 220 244 288 285 297 296 288 290 283 251 219 212 220 221 150 139 138 133 130 125 121 122 131 145 156 164 185 196 185 201 206 196 198 207 210 222 228 220 195 180 168 170 182 173 162 160 199
255 204 210 225 231 254 246 254 269 291 293 281 237 200 196 165 137 135 136 137 133 129 128 132 144 154 161 178 184 204 214 213 230 207 185 197 200 206 207 215 205 194 180 182 185 193 180 178 181
253 218 228 231 239 254 242 229 269 308 338 1 359 11 109 135 132 130 128 122 123 134 141 142 149 149 155 175 188 200 216 217 225 218 183 181 182 202 208 209 208 202 194 197 198 208 200 194 191
237 246 262 243 224 261 332 234 237 226 251 342 355 4 72 130 137 128 124 122 130 143 150 149 157 149 162 186 211 210 209 219 213 199 184 178 183 194 213 207 210 209 210 208 206 215 220 207 199
274 253 246 269 273 293 322 265 262 206 194 164 109 99 124 139 136 132 136 137 146 155 160 161 162 161 169 197 219 214 188 188 214 143 145 164 172 183 204 198 205 215 217 215 213 215 220 218 210
286 276 277 268 270 269 230 213 195 190 169 167 155 151 144 145 143 145 149 151 159 163 167 169 164 166 172 205 226 225 168 155 159 151 144 129 143 165 188 175 185 196 205 211 211 214 219 216 212
303 298 279 263 288 282 284 20 9 350 356 333 138 110 92 99 108 131 147 160 164 166 170 177 179 179 176 205 201 141 69 131 119 120 149 154 173 168 164 203 185 170 174 195 205 216 221 216 215
335 325 309 297 253 273 320 27 37 22 2 346 10 61 96 104 110 118 156 195 171 167 170 176 187 190 172 185 177 141 171 159 149 174 147 148 169 169 184 200 199 175 175 185 194 210 216 222 220
354 317 298 274 292 302 287 45 45 38 8 358 353 353 354 40 120 148 161 180 184 179 179 184 190 190 171 174 166 162 172 167 195 191 172 177 183 183 200 194 198 184 177 178 183 199 205 212 213